Coleman, TX

12:21 AM CST on February 19, 2018 (GMT -0600)
Coleman Municipal

Weather History for KCOM - June, 2014

Change the Weather History Date:

Saturday, June 28, 2014

  Actual Average (KABI) Record (KABI)
Temperature  
Mean Temperature 84 °F -  
Max Temperature 94 °F 89 °F 109 °F (1980)
Min Temperature 75 °F 69 °F 56 °F (1985)
Cooling Degree Days 20    
Growing Degree Days 34 (Base 50)    
Moisture  
Dew Point 67 °F    
Average Humidity 58    
Maximum Humidity 77    
Minimum Humidity 39    
Precipitation  
Precipitation 0.00 in - - ()
Sea Level Pressure  
Sea Level Pressure 29.86 in    
Wind  
Wind Speed 16 mph (South)    
Max Wind Speed 24 mph    
Max Gust Speed 36 mph    
Visibility 10 miles    
Events      
Averages and records for this station are not official NWS values.
T = Trace of Precipitation, MM = Missing Value Source: NWS Daily Summary

Daily Weather History Graph

Daily Weather History Graph

Search for Another Location

Airport or City:

Trip Planner

Search our weather history database for the weather conditions in past years. The results will help you decide how hot, cold, wet, or windy it might be!

Date:

Astronomy

Jun. 28, 2014 Rise Set
Actual Time 6:34 AM CDT 8:47 PM CDT
Civil Twilight 6:06 AM CDT 9:15 PM CDT
Nautical Twilight 5:31 AM CDT 9:49 PM CDT
Astronomical Twilight 4:54 AM CDT 10:26 PM CDT
Moon 7:52 AM CDT (6/28) 9:41 PM CDT (6/28)
Length of Visible Light 15h 09m
Length of Day
14h 12m
New Moon, 2% of the Moon is Illuminated
Jun 28
New Moon
Jul 5
First Quarter
Jul 12
Full
Jul 18
Last Quarter
Jul 26
New

Hourly Weather History & Observations

Time (CDT) Temp. Heat Index Dew Point Humidity Pressure Visibility Wind Dir Wind Speed Gust Speed Precip Events Conditions
12:15 AM 78.8 °F - 67.5 °F 68% 29.84 in 10.0 mi South 17.3 mph 24.2 mph N/A   Clear
12:35 AM 78.3 °F - 67.5 °F 69% 29.84 in 10.0 mi South 15.0 mph 23.0 mph N/A   Clear
12:55 AM 77.9 °F - 67.6 °F 71% 29.84 in 10.0 mi South 17.3 mph 28.8 mph N/A   Clear
1:15 AM 77.9 °F - 68.0 °F 71% 29.85 in 10.0 mi South 15.0 mph 21.9 mph N/A   Mostly Cloudy
1:35 AM 77.4 °F - 67.8 °F 72% 29.86 in 10.0 mi South 13.8 mph - N/A   Mostly Cloudy
1:55 AM 77.4 °F - 68.0 °F 73% 29.87 in 10.0 mi South 10.4 mph - N/A   Mostly Cloudy
2:15 AM 77.4 °F - 68.0 °F 73% 29.88 in 10.0 mi SSE 5.8 mph - N/A   Overcast
2:35 AM 77.4 °F - 68.2 °F 73% 29.87 in 10.0 mi SE 9.2 mph - N/A   Overcast
2:55 AM 77.2 °F - 68.2 °F 74% 29.84 in 10.0 mi SE 12.7 mph - N/A   Overcast
3:15 AM 77.2 °F - 68.2 °F 74% 29.83 in 10.0 mi SE 13.8 mph - N/A   Scattered Clouds
3:35 AM 77.2 °F - 68.0 °F 73% 29.83 in 10.0 mi SE 15.0 mph 19.6 mph N/A   Scattered Clouds
3:55 AM 77.2 °F - 68.2 °F 74% 29.83 in 10.0 mi SSE 16.1 mph 24.2 mph N/A   Clear
4:15 AM 77.0 °F - 68.2 °F 74% 29.84 in 10.0 mi SSE 10.4 mph - N/A   Scattered Clouds
4:35 AM 77.0 °F - 68.2 °F 74% 29.84 in 10.0 mi SSE 13.8 mph 18.4 mph N/A   Overcast
4:55 AM 76.6 °F - 68.0 °F 75% 29.82 in 10.0 mi SSE 16.1 mph 23.0 mph N/A   Mostly Cloudy
5:15 AM 76.6 °F - 68.0 °F 75% 29.81 in 10.0 mi SSE 18.4 mph - N/A   Scattered Clouds
5:35 AM 76.5 °F - 68.0 °F 75% 29.82 in 10.0 mi South 13.8 mph - N/A   Clear
5:55 AM 76.5 °F - 68.0 °F 75% 29.84 in 10.0 mi South 13.8 mph 17.3 mph N/A   Mostly Cloudy
6:15 AM 76.5 °F - 68.0 °F 75% 29.85 in 10.0 mi South 12.7 mph - N/A   Overcast
6:35 AM 75.9 °F - 68.2 °F 77% 29.83 in 10.0 mi SSE 15.0 mph - N/A   Scattered Clouds
7:15 AM 76.6 °F - 68.4 °F 75% 29.85 in 10.0 mi South 11.5 mph 17.3 mph N/A   Mostly Cloudy
7:35 AM 77.9 °F - 68.4 °F 72% 29.85 in 10.0 mi South 15.0 mph - N/A   Overcast
7:55 AM 79.0 °F - 68.4 °F 70% 29.85 in 10.0 mi South 15.0 mph 24.2 mph N/A   Overcast
8:15 AM 78.8 °F - 68.4 °F 70% 29.85 in 10.0 mi South 15.0 mph 26.5 mph N/A   Overcast
8:35 AM 79.9 °F - 68.5 °F 68% 29.86 in 10.0 mi South 21.9 mph 26.5 mph N/A   Overcast
8:55 AM 79.9 °F - 68.4 °F 68% 29.87 in 10.0 mi South 16.1 mph 26.5 mph N/A   Overcast
9:15 AM 80.4 °F 83.2 °F 68.5 °F 67% 29.87 in 10.0 mi South 18.4 mph 31.1 mph N/A   Overcast
9:35 AM 80.8 °F 83.6 °F 68.5 °F 66% 29.87 in 10.0 mi South 19.6 mph 28.8 mph N/A   Overcast
9:55 AM 81.9 °F 85.0 °F 68.7 °F 64% 29.86 in 10.0 mi South 21.9 mph 28.8 mph N/A   Overcast
10:15 AM 83.3 °F 86.9 °F 69.1 °F 62% 29.86 in 10.0 mi South 20.7 mph 28.8 mph N/A   Mostly Cloudy
10:35 AM 83.5 °F 86.4 °F 68.0 °F 59% 29.86 in 10.0 mi South 21.9 mph 35.7 mph N/A   Overcast
10:55 AM 84.4 °F 87.6 °F 68.0 °F 58% 29.86 in 10.0 mi South 23.0 mph 29.9 mph N/A   Overcast
11:15 AM 85.6 °F 88.8 °F 67.6 °F 55% 29.86 in 10.0 mi South 24.2 mph 31.1 mph N/A   Overcast
11:35 AM 86.4 °F 89.4 °F 67.3 °F 53% 29.87 in 10.0 mi South 24.2 mph 33.4 mph N/A   Overcast
11:55 AM 86.2 °F 88.8 °F 66.7 °F 52% 29.87 in 10.0 mi South 18.4 mph 32.2 mph N/A   Overcast
12:15 PM 87.8 °F 90.4 °F 66.6 °F 49% 29.87 in 10.0 mi South 23.0 mph 28.8 mph N/A   Overcast
12:35 PM 87.3 °F 89.8 °F 66.6 °F 50% 29.88 in 10.0 mi South 20.7 mph 27.6 mph N/A   Overcast
12:55 PM 88.2 °F 90.9 °F 66.7 °F 49% 29.88 in 10.0 mi SSW 19.6 mph 27.6 mph N/A   Overcast
1:15 PM 90.0 °F 92.8 °F 66.9 °F 46% 29.88 in 10.0 mi South 19.6 mph 24.2 mph N/A   Overcast
1:35 PM 90.5 °F 93.3 °F 66.6 °F 45% 29.88 in 10.0 mi South 19.6 mph 25.3 mph N/A   Overcast
1:55 PM 91.9 °F 95.0 °F 66.4 °F 43% 29.87 in 10.0 mi South 20.7 mph 27.6 mph N/A   Mostly Cloudy
2:15 PM 91.0 °F 93.8 °F 66.2 °F 44% 29.87 in 10.0 mi SSE 17.3 mph 23.0 mph N/A   Mostly Cloudy
2:35 PM 92.3 °F 95.1 °F 66.2 °F 42% 29.87 in 10.0 mi SSE 19.6 mph 27.6 mph N/A   Mostly Cloudy
2:55 PM 92.7 °F 95.3 °F 65.5 °F 41% 29.87 in 10.0 mi South 18.4 mph 25.3 mph N/A   Mostly Cloudy
3:15 PM 93.0 °F 95.5 °F 65.5 °F 40% 29.87 in 10.0 mi SSE 17.3 mph 26.5 mph N/A   Mostly Cloudy
3:35 PM 93.2 °F 95.8 °F 65.7 °F 40% 29.86 in 10.0 mi South 18.4 mph 21.9 mph N/A   Mostly Cloudy
3:55 PM 94.1 °F 96.9 °F 65.5 °F 39% 29.86 in 10.0 mi South 16.1 mph 27.6 mph N/A   Scattered Clouds
4:15 PM 92.8 °F 95.2 °F 65.3 °F 40% 29.85 in 10.0 mi South 16.1 mph 28.8 mph N/A   Mostly Cloudy
4:35 PM 93.4 °F 95.6 °F 65.3 °F 39% 29.85 in 10.0 mi South 15.0 mph 29.9 mph N/A   Scattered Clouds
4:55 PM 93.0 °F 95.5 °F 65.5 °F 40% 29.85 in 10.0 mi South 18.4 mph 27.6 mph N/A   Scattered Clouds
5:15 PM 93.4 °F 95.6 °F 64.9 °F 39% 29.85 in 10.0 mi SSE 19.6 mph 24.2 mph N/A   Scattered Clouds
5:35 PM 93.6 °F 95.9 °F 65.3 °F 39% 29.85 in 10.0 mi South 16.1 mph 23.0 mph N/A   Scattered Clouds
5:55 PM 93.6 °F 95.9 °F 65.3 °F 39% 29.85 in 10.0 mi South 16.1 mph 26.5 mph N/A   Scattered Clouds
6:15 PM 92.7 °F 95.3 °F 65.7 °F 41% 29.84 in 10.0 mi South 17.3 mph - N/A   Scattered Clouds
6:35 PM 92.3 °F 95.1 °F 66.0 °F 42% 29.84 in 10.0 mi SSE 19.6 mph 26.5 mph N/A   Clear
6:55 PM 91.0 °F 93.0 °F 65.3 °F 42% 29.84 in 10.0 mi South 17.3 mph 24.2 mph N/A   Clear
7:15 PM 90.5 °F 92.9 °F 65.8 °F 44% 29.85 in 10.0 mi South 13.8 mph 24.2 mph N/A   Clear
7:35 PM 89.8 °F 92.1 °F 65.8 °F 45% 29.85 in 10.0 mi South 17.3 mph - N/A   Clear
7:55 PM 88.9 °F 91.0 °F 65.7 °F 46% 29.86 in 10.0 mi SSE 16.1 mph 21.9 mph N/A   Clear
8:15 PM 87.4 °F 89.8 °F 66.0 °F 49% 29.86 in 10.0 mi SSE 16.1 mph 19.6 mph N/A   Clear
8:35 PM 86.5 °F 88.7 °F 65.7 °F 50% 29.86 in 10.0 mi SSE 15.0 mph - N/A   Clear
8:55 PM 86.0 °F 88.2 °F 66.2 °F 51% 29.87 in 10.0 mi SSE 12.7 mph - N/A   Clear
9:15 PM 85.3 °F 87.4 °F 65.8 °F 52% 29.87 in 10.0 mi SSE 11.5 mph - N/A   Clear
9:35 PM 84.6 °F 87.1 °F 66.6 °F 55% 29.88 in 10.0 mi SSE 12.7 mph - N/A   Clear
9:55 PM 84.0 °F 86.5 °F 66.6 °F 56% 29.89 in 10.0 mi SSE 12.7 mph - N/A   Clear
10:15 PM 83.7 °F 86.2 °F 66.7 °F 57% 29.90 in 10.0 mi SSE 13.8 mph 19.6 mph N/A   Clear
10:35 PM 83.3 °F 85.7 °F 66.7 °F 57% 29.90 in 10.0 mi SSE 15.0 mph 21.9 mph N/A   Clear
10:55 PM 82.9 °F 85.4 °F 66.6 °F 58% 29.91 in 10.0 mi South 13.8 mph 20.7 mph N/A   Clear
11:15 PM 82.8 °F 85.1 °F 66.7 °F 58% 29.92 in 10.0 mi South 16.1 mph 20.7 mph N/A   Clear
11:35 PM 82.4 °F 84.8 °F 66.7 °F 59% 29.92 in 10.0 mi South 12.7 mph 23.0 mph N/A   Clear
11:55 PM 81.9 °F 84.4 °F 67.1 °F 61% 29.93 in 10.0 mi South 12.7 mph - N/A   Clear